Flag for Maldives Weather past 2 weeks in Male, Maldives

Now
90 °F

Scattered clouds.


Feels Like: 105 °F
Forecast: 84 / 90 °F
Wind: 15 mph from Southwest

Location: Male Airport

Current Time: Jul 8, 2015 at 11:48:22 AM

Latest Report: Jul 8, 2015 at 11:00 AM


Visibility: N/A

Pressure: 29.89 "Hg

Humidity: 71%

Dew point: 79 °F

Location of MaleLocation

Historic Weather in Male — Graph

°F

Male temperature yesterday

Maximum temperature yesterday: 88 °F (at 10:00 AM)
Minimum temperature yesterday: 82 °F (at 4:00 AM)
Average temperature yesterday: 86 °F

Past Weeks' High & Low Weather Summary

 TemperatureHumidityPressure
High91 °F (Jun 26, 2:00 PM)94% (Jun 28, 8:08 PM)29.98 "Hg (Jun 28, 8:08 PM)
Low81 °F (Jun 30, 1:00 AM)63% (Jun 23, 4:00 PM)29.80 "Hg (Jun 23, 2:00 PM)
Average86 °F75%29.89 "Hg
* Reported Jun 23 10:00 AM — Jul 8 10:00 AM, Male, Weather by CustomWeather, © 2015

Note: Actual official high and low records may vary slightly from our data, if they occured in-between our weather recording intervals... More about our weather records

Advertising

Male weather history for previous 24 hours

 ConditionsComfort  
Time TempWeatherWind HumidityBarometerVisibility
10:00 AM
Wed, Jul 8
90 °FScattered clouds.14 mph67%29.89 "HgN/A
9:00 AM88 °FScattered clouds.14 mph70%29.89 "HgN/A
8:00 AM86 °FBroken clouds.15 mph79%29.89 "HgN/A
7:00 AM86 °FBroken clouds.12 mph79%29.86 "HgN/A
6:00 AM86 °FPartly sunny.12 mph75%29.83 "HgN/A
5:00 AM84 °FPartly cloudy.12 mph79%29.83 "HgN/A
4:00 AM86 °FPartly cloudy.13 mph75%29.83 "HgN/A
3:00 AM86 °FPassing clouds.15 mph75%29.83 "HgN/A
2:00 AM86 °FPartly cloudy.14 mph75%29.83 "HgN/A
1:00 AM86 °FPartly cloudy.13 mph79%29.83 "HgN/A
12:00 AM86 °FPartly cloudy.13 mph75%29.86 "HgN/A
11:00 PM
Tue, Jul 7
86 °FPassing clouds.14 mph79%29.89 "HgN/A
10:00 PM86 °FPassing clouds.16 mph75%29.86 "HgN/A
9:00 PM86 °FPassing clouds.17 mph75%29.86 "HgN/A
8:00 PM86 °FPassing clouds.16 mph79%29.83 "HgN/A
7:00 PM86 °FPassing clouds.16 mph79%29.83 "HgN/A
6:00 PM86 °FScattered clouds.18 mph75%29.83 "HgN/A
5:00 PM88 °FScattered clouds.17 mph70%29.80 "HgN/A
4:00 PM88 °FScattered clouds.17 mph70%29.80 "HgN/A
3:00 PM88 °FScattered clouds.15 mph70%29.80 "HgN/A
2:00 PM88 °FScattered clouds.14 mph70%29.80 "HgN/A
1:00 PM88 °FPassing clouds.15 mph70%29.83 "HgN/A
12:00 PM86 °FScattered clouds.18 mph75%29.86 "HgN/A
11:00 AM88 °FScattered clouds.15 mph70%29.86 "HgN/A
Weather by CustomWeather, © 2015

See weather overviewHow to use our weather pages